Regional Weather Roundup
Issued by NWS Nashville, TN

Home | Current Version | Previous Version | Text Only | Print | Product List | Glossary On
Versions: 1 2 3 4 5 6 7 8 9 10 11 12 13 14 15 16 17 18 19 20 21 22 23 24 25 26 27 28 29 30 31 32 33 34 35 36 37 38 39 40 41 42 43 44 45 46 47 48 49 50
000
ASUS44 KOHX 250015
RWROHX
MIDDLE TENNESSEE HOURLY WEATHER ROUNDUP
NATIONAL WEATHER SERVICE NASHVILLE TN
700 PM CDT FRI OCT 24 2014

NOTE: "FAIR" INDICATES FEW OR NO CLOUDS BELOW 12,000 FEET WITH
NO SIGNIFICANT WEATHER AND/OR OBSTRUCTIONS TO VISIBILITY.

* THESE REPORTS ARE NOT UNDER NWS QUALITY CONTROL AND MAY NOT
  REPORT WEATHER SUCH AS PRECIPITATION AND FOG.


TNZ005>011-023>034-057-059-062>066-078-080-250100
...NORTHERN MIDDLE TENNESSEE...

CITY           SKY/WX    TMP DP  RH WIND       PRES   REMARKS
CLARKSVILLE    CLEAR     60  52  74 CALM      30.07S
CROSSVILLE     CLEAR     57  37  47 NW3       30.09R
NASHVILLE      PTCLDY    63  45  51 NW3       30.08R
SMYRNA         PTCLDY    56  49  77 CALM      30.09R
SPARTA         CLEAR     46  45  93 CALM      30.08R
$$
TNZ056-058-060-061-075>077-079-093>097-250100
...SOUTHERN MIDDLE TENNESSEE...

CITY           SKY/WX    TMP DP  RH WIND       PRES   REMARKS
COLUMBIA       CLEAR     57  54  88 CALM      30.07R
FAYETTEVILLE   CLEAR     57  41  54 N7        30.08R
MCMINNVILLE    CLEAR     54  45  71 CALM      30.08R
SHELBYVILLE    CLEAR     55  46  71 CALM      30.09R
TULLAHOMA      CLEAR     54  43  66 CALM      30.09R
WINCHESTER     CLEAR     52  45  76 CALM      30.08R
$$


...KEY TO REMARKS...
VSB - VISIBILITY IN MILES
WCI - WIND CHILL INDEX
HX  - HEAT INDEX




USA.gov is the U.S. government's official web portal to all federal, state and local government web resources and services.